Starlink 6372

operational
NORAD ID: 57348 Int'l Des: 2023-099 Owner: SPXS Country: US Constellation: starlink
LEOCIRCULAR

关于 Starlink 6372

正在加载描述...

实时位置

正在加载3D地球...

即将过境

高度历史

Altitude vs Time

uPlot chart will show altitude changes over time

两行轨道根数

1 57348U 23099W 25350.33713533 -.00000654 00000-0 -33384-4 0 9995
2 57348 43.0048 341.4198 0001307 266.2369 93.8324 15.02526095133587
Epoch: Dec 16, 2025 • Age: 13 hours

当前状态

高度 558.5 km
速度 7.59 km/s
星下点 14.76°N, 92.94°E
发射日期 Jul 16, 2023
运行时间 2.4 years
类型 internet

技术详情

分类 Payload
质量 305.00 kg
干质量 290.00 kg
总质量 305.00 kg
长度 0.20 m
直径 2.80 m
跨度 9.00 m
形状 Box + pan
制造商 SPXS
平台类型 Starlink
阶段状态 In Orbit
所有者/国家 SPXS/US

大型星座

Loading constellations...